Weather History for KNYL - January, 2014

Change the Weather History Date:

Thursday, January 30, 2014

  Actual Average Record
Temperature  
Mean Temperature 68 °F 60 °F  
Max Temperature 82 °F 71 °F 84 °F (1953)
Min Temperature 54 °F 48 °F 28 °F (1949)
Degree Days  
Heating Degree Days 0 6  
Month to date heating degree days 65 200  
Since 1 July heating degree days 306 504  
Cooling Degree Days 3 0  
Month to date cooling degree days 16 0  
Year to date cooling degree days 16 0  
Growing Degree Days 18 (Base 50)    
Moisture  
Dew Point 30 °F    
Average Humidity 26    
Maximum Humidity 38    
Minimum Humidity 13    
Precipitation  
Precipitation 0.00 in 0.01 in 0.39 in (1890)
Month to date precipitation T 0.36  
Year to date precipitation T 0.36  
Sea Level Pressure  
Sea Level Pressure 29.81 in    
Wind  
Wind Speed 8 mph (SSE)    
Max Wind Speed 17 mph    
Max Gust Speed 20 mph    
Visibility 10 miles    
Events      
T = Trace of Precipitation, MM = Missing Value Source: NWS Daily Summary

Daily Weather History Graph

Daily Weather History Graph

Search for Another Location

Airport or City:

Trip Planner

Search our weather history database for the weather conditions in past years. The results will help you decide how hot, cold, wet, or windy it might be!

Date:

Astronomy

Jan. 30, 2014 Rise Set
Actual Time 7:34 AM MST 6:09 PM MST
Civil Twilight 7:08 AM MST 6:35 PM MST
Nautical Twilight 6:38 AM MST 7:05 PM MST
Astronomical Twilight 6:09 AM MST 7:34 PM MST
Moon 7:05 AM MST (1/30) 6:22 PM MST (1/30)
Length of Visible Light 11h 27m
Length of Day
10h 35m
Waning Crescent, 0% of the Moon is Illuminated
Jan 30
Waning Crescent
Jan 30
New
Feb 6
First Quarter
Feb 14
Full
Feb 22
Last Quarter

Hourly Weather History & Observations

Time (MST) Temp. Dew Point Humidity Pressure Visibility Wind Dir Wind Speed Gust Speed Precip Events Conditions
12:57 AM 61.0 °F 23.0 °F 23% 29.88 in 10.0 mi SE 3.5 mph - N/A   Clear
1:57 AM 57.9 °F 23.0 °F 26% 29.86 in 10.0 mi Calm Calm - N/A   Clear
2:57 AM 60.1 °F 21.9 °F 23% 29.86 in 10.0 mi ESE 5.8 mph - N/A   Clear
3:57 AM 60.1 °F 23.0 °F 24% 29.84 in 10.0 mi SE 5.8 mph - N/A   Clear
4:57 AM 55.9 °F 28.0 °F 34% 29.84 in 10.0 mi NE 4.6 mph - N/A   Clear
5:57 AM 55.9 °F 30.9 °F 39% 29.83 in 10.0 mi ENE 3.5 mph - N/A   Clear
6:57 AM 55.0 °F 30.0 °F 38% 29.85 in 10.0 mi North 5.8 mph - N/A   Mostly Cloudy
7:57 AM 55.9 °F 30.0 °F 37% 29.86 in 10.0 mi NNE 3.5 mph - N/A   Mostly Cloudy
8:57 AM 60.1 °F 28.0 °F 30% 29.86 in 10.0 mi Calm Calm - N/A   Mostly Cloudy
9:57 AM 66.0 °F 27.0 °F 23% 29.88 in 10.0 mi SSE 6.9 mph - N/A   Mostly Cloudy
10:57 AM 73.0 °F 21.9 °F 15% 29.88 in 10.0 mi SSE 13.8 mph - N/A   Mostly Cloudy
11:57 AM 75.0 °F 24.1 °F 15% 29.86 in 10.0 mi South 15.0 mph - N/A   Mostly Cloudy
12:57 PM 77.0 °F 26.1 °F 15% 29.82 in 10.0 mi South 11.5 mph - N/A   Mostly Cloudy
1:57 PM 79.0 °F 24.1 °F 13% 29.78 in 10.0 mi South 11.5 mph - N/A   Mostly Cloudy
2:57 PM 81.0 °F 26.1 °F 13% 29.76 in 10.0 mi South 11.5 mph - N/A   Mostly Cloudy
3:57 PM 80.1 °F 33.1 °F 18% 29.75 in 10.0 mi South 10.4 mph - N/A   Mostly Cloudy
4:57 PM 78.1 °F 36.0 °F 22% 29.74 in 10.0 mi South 11.5 mph - N/A   Scattered Clouds
5:57 PM 73.9 °F 35.1 °F 24% 29.73 in 10.0 mi South 10.4 mph - N/A   Scattered Clouds
6:57 PM 71.1 °F 33.1 °F 25% 29.76 in 10.0 mi SSE 5.8 mph - N/A   Scattered Clouds
7:57 PM 69.1 °F 34.0 °F 27% 29.74 in 10.0 mi SSE 12.7 mph - N/A   Scattered Clouds
8:57 PM 69.1 °F 37.0 °F 31% 29.74 in 10.0 mi SSE 13.8 mph - N/A   Clear
9:57 PM 66.9 °F 37.0 °F 33% 29.74 in 10.0 mi SSE 11.5 mph - N/A   Clear
10:57 PM 66.0 °F 39.0 °F 37% 29.77 in 10.0 mi WNW 3.5 mph - N/A   Clear
11:57 PM 63.0 °F 39.9 °F 43% 29.77 in 10.0 mi Calm Calm - N/A   Clear